EW0177 Weather Reports


Display with metric or nautical units.
time (UTC)temp
F
wind
direction
speed
MPH
gust
MPH
rain 1hr
in
rain 24hr
in
rain mn
in
humidity
%
barometer
mb
20260906114517 61 23 3.0 6.0 0.00 0.00 0.00 21 1018.5
20260906113517 61 23 4.0 5.0 0.00 0.00 0.00 21 1018.4
20260906112519 61 23 3.0 5.0 0.00 0.00 0.00 21 1018.4
20260906111517 61 23 4.0 6.0 0.00 0.00 0.00 21 1018.4
20260906110517 62 23 5.0 8.0 0.00 0.00 0.00 21 1018.3
20260906105517 62 23 3.0 6.0 0.00 0.00 0.00 22 1018.2
20260906104517 62 23 3.0 7.0 0.00 0.00 0.00 22 1018.2
20260906103517 62 23 2.0 5.0 0.00 0.00 0.00 23 1018.3
20260906102519 62 23 3.0 7.0 0.00 0.00 0.00 25 1018.4
20260906101519 62 23 5.0 7.0 0.00 0.00 0.00 27 1018.3
20260906100520 62 23 3.0 6.0 0.00 0.00 0.00 27 1018.2
20260906095519 62 0 3.0 5.0 0.00 0.00 0.00 29 1018.0
20260906094518 62 23 2.0 6.0 0.00 0.00 0.00 30 1018.1
20260906093519 62 23 2.0 5.0 0.00 0.00 0.00 31 1018.1
20260906092519 62 23 2.0 4.0 0.00 0.00 0.00 33 1018.1
20260906091519 62 23 2.0 6.0 0.00 0.00 0.00 36 1018.1
20260906090518 62 23 2.0 5.0 0.00 0.00 0.00 39 1017.9
20260906085519 63 23 2.0 4.0 0.00 0.00 0.00 43 1017.7
20260906084519 63 45 4.0 7.0 0.00 0.00 0.00 44 1017.5
20260906082519 63 45 5.0 10.0 0.00 0.00 0.00 46 1017.4
20260906081538 63 45 5.0 10.0 0.00 0.00 0.00 46 1017.3
20260906080541 63 45 6.0 12.0 0.00 0.00 0.00 45 1017.2
20260906075519 63 0 6.0 11.0 0.00 0.00 0.00 45 1017.2
20260906074518 63 0 5.0 11.0 0.00 0.00 0.00 46 1017.1
20260906073518 63 0 5.0 10.0 0.00 0.00 0.00 48 1017.1
20260906072518 63 23 5.0 9.0 0.00 0.00 0.00 48 1017.0
20260906071519 63 0 5.0 8.0 0.00 0.00 0.00 49 1017.0
20260906070518 63 0 5.0 11.0 0.00 0.00 0.00 51 1017.1
20260906065519 64 0 5.0 10.0 0.00 0.00 0.00 52 1017.2
20260906064518 64 0 5.0 11.0 0.00 0.00 0.00 52 1017.1
20260906063519 64 0 6.0 11.0 0.00 0.00 0.00 51 1017.1
20260906062702 64 0 5.0 9.0 0.00 0.00 0.00 48 1017.1
20260906061520 64 0 4.0 7.0 0.00 0.00 0.00 48 1017.0
20260906060539 65 0 4.0 7.0 0.00 0.00 0.00 49 1017.1
20260906055518 65 0 3.0 6.0 0.00 0.00 0.00 50 1017.0
20260906054518 65 23 4.0 7.0 0.00 0.00 0.00 52 1017.1
20260906053518 65 45 4.0 9.0 0.00 0.00 0.00 54 1017.1
20260906052518 65 0 4.0 8.0 0.00 0.00 0.00 56 1017.1
20260906051519 66 0 4.0 10.0 0.00 0.00 0.00 57 1016.9
20260906050558 66 23 5.0 9.0 0.00 0.00 0.00 57 1016.7
20260906045518 66 23 5.0 9.0 0.00 0.00 0.00 58 1016.9
20260906044519 67 45 5.0 9.0 0.00 0.00 0.00 58 1016.9
20260906043518 67 45 5.0 9.0 0.00 0.00 0.00 58 1016.7
20260906042518 67 45 7.0 11.0 0.00 0.00 0.00 57 1016.5
20260906041538 68 45 6.0 10.0 0.00 0.00 0.00 56 1016.4
20260906040518 68 23 5.0 9.0 0.00 0.00 0.00 53 1016.4
20260906035539 69 23 5.0 14.0 0.00 0.00 0.00 51 1016.5
20260906034519 69 23 6.0 11.0 0.00 0.00 0.00 50 1016.3
20260906033518 70 45 6.0 12.0 0.00 0.00 0.00 47 1016.2
20260906032519 70 45 7.0 13.0 0.00 0.00 0.00 46 1016.2
20260906031518 70 23 6.0 8.0 0.00 0.00 0.00 46 1016.3
20260906030518 70 23 5.0 8.0 0.00 0.00 0.00 47 1016.1
20260906025520 70 0 3.0 7.0 0.00 0.00 0.00 49 1016.1
20260906024540 70 0 4.0 9.0 0.00 0.00 0.00 51 1015.9
20260906023518 71 23 5.0 9.0 0.00 0.00 0.00 52 1015.8
20260906022519 71 0 5.0 10.0 0.00 0.00 0.00 53 1015.7
20260906021518 71 23 6.0 11.0 0.00 0.00 0.00 55 1015.5
20260906020539 72 23 5.0 9.0 0.00 0.00 0.00 55 1015.5
20260906015518 72 23 5.0 8.0 0.00 0.00 0.00 55 1015.4
20260906014518 73 45 4.0 9.0 0.00 0.00 0.00 55 1015.7
20260906013520 73 0 4.0 9.0 0.00 0.00 0.00 55 1015.6
20260906012540 73 0 4.0 9.0 0.00 0.00 0.00 54 1015.4
20260906011519 73 0 3.0 7.0 0.00 0.00 0.00 54 1015.2
20260906010518 74 23 3.0 7.0 0.00 0.00 0.00 53 1015.1
20260906005540 74 23 3.0 8.0 0.00 0.00 0.00 52 1015.0
20260906004518 74 0 4.0 9.0 0.00 0.00 0.00 51 1015.0
20260906003519 75 23 4.0 8.0 0.00 0.00 0.00 50 1015.0
20260906002518 75 23 3.0 9.0 0.00 0.00 0.00 45 1014.8
20260906001518 75 23 3.0 8.0 0.00 0.00 0.00 40 1015.0
20260906000518 75 23 3.0 4.0 0.00 0.00 0.00 41 1015.1
20260905235518 76 23 1.0 4.0 0.00 0.00 0.00 44 1015.0
20260905234518 76 23 1.0 2.0 0.00 0.00 0.00 46 1015.0
20260905233518 76 23 1.0 2.0 0.00 0.00 0.00 47 1015.1
20260905232518 76 23 1.0 3.0 0.00 0.00 0.00 49 1015.0
20260905231518 76 0 2.0 5.0 0.00 0.00 0.00 48 1014.8
20260905230518 76 23 2.0 5.0 0.00 0.00 0.00 46 1014.9
20260905225518 77 23 3.0 7.0 0.00 0.00 0.00 41 1014.9
20260905224518 77 23 1.0 5.0 0.00 0.00 0.00 39 1014.8
20260905223541 77 0 1.0 7.0 0.00 0.00 0.00 44 1014.8
20260905222518 77 0 2.0 8.0 0.00 0.00 0.00 42 1014.8
20260905221539 77 23 3.0 8.0 0.00 0.00 0.00 44 1014.6
20260905220518 77 0 3.0 6.0 0.00 0.00 0.00 45 1014.6
20260905215518 77 23 4.0 10.0 0.00 0.00 0.00 45 1014.3
20260905214519 77 23 5.0 10.0 0.00 0.00 0.00 40 1014.5
20260905213518 77 0 5.0 12.0 0.00 0.00 0.00 38 1014.4
20260905212518 78 0 6.0 14.0 0.00 0.00 0.00 40 1014.5
20260905211518 79 23 4.0 10.0 0.00 0.00 0.00 27 1014.5
20260905210518 78 23 5.0 11.0 0.00 0.00 0.00 22 1014.3
20260905205519 78 23 4.0 10.0 0.00 0.00 0.00 19 1014.4
20260905204518 77 23 3.0 6.0 0.00 0.00 0.00 19 1014.4
20260905203519 77 23 3.0 8.0 0.00 0.00 0.00 18 1014.6
20260905202518 76 0 3.0 6.0 0.00 0.00 0.00 18 1014.6
20260905201518 75 23 4.0 7.0 0.00 0.00 0.00 18 1014.7
20260905200518 75 0 3.0 7.0 0.00 0.00 0.00 18 1014.6
20260905195518 74 0 4.0 8.0 0.00 0.00 0.00 18 1014.6
20260905194518 74 23 4.0 9.0 0.00 0.00 0.00 18 1014.7
20260905193519 74 23 3.0 9.0 0.00 0.00 0.00 18 1014.8
20260905192517 74 23 6.0 12.0 0.00 0.00 0.00 18 1014.8
20260905191518 74 23 2.0 6.0 0.00 0.00 0.00 18 1014.8
20260905190518 74 0 5.0 13.0 0.00 0.00 0.00 18 1014.8
20260905185519 73 0 5.0 13.0 0.00 0.00 0.00 19 1014.7
20260905184538 73 0 4.0 13.0 0.00 0.00 0.00 19 1015.0
20260905183518 73 23 4.0 8.0 0.00 0.00 0.00 19 1015.0
20260905182518 73 23 3.0 9.0 0.00 0.00 0.00 19 1015.0
20260905181518 73 23 4.0 7.0 0.00 0.00 0.00 19 1014.9
20260905180517 73 0 4.0 8.0 0.00 0.00 0.00 19 1014.8
20260905175519 72 23 4.0 9.0 0.00 0.00 0.00 19 1014.9
20260905174517 72 0 3.0 6.0 0.00 0.00 0.00 19 1014.8
20260905173539 72 0 4.0 9.0 0.00 0.00 0.00 19 1014.7
20260905172557 73 23 3.0 6.0 0.00 0.00 0.00 19 1014.8
20260905171518 73 23 4.0 7.0 0.00 0.00 0.00 18 1014.9
20260905170517 73 0 4.0 7.0 0.00 0.00 0.00 18 1015.0
20260905165517 73 23 4.0 10.0 0.00 0.00 0.00 18 1014.9
20260905164517 73 0 4.0 8.0 0.00 0.00 0.00 18 1014.8
20260905163517 74 23 5.0 10.0 0.00 0.00 0.00 18 1014.9
20260905162517 74 23 4.0 8.0 0.00 0.00 0.00 18 1014.9
20260905161538 74 0 3.0 6.0 0.00 0.00 0.00 18 1014.8
20260905160518 74 23 3.0 7.0 0.00 0.00 0.00 18 1014.8
20260905155518 74 45 5.0 9.0 0.00 0.00 0.00 18 1014.8
20260905154517 73 23 3.0 8.0 0.00 0.00 0.00 18 1014.8
20260905153537 73 45 5.0 9.0 0.00 0.00 0.00 19 1014.6
20260905152518 72 0 5.0 9.0 0.00 0.00 0.00 19 1014.5
20260905151517 72 0 4.0 8.0 0.00 0.00 0.00 20 1014.6
20260905150517 71 23 5.0 8.0 0.00 0.00 0.00 21 1014.5
20260905145517 71 23 5.0 10.0 0.00 0.00 0.00 21 1014.6
20260905144537 71 23 5.0 10.0 0.00 0.00 0.00 22 1014.4
20260905143517 70 23 3.0 8.0 0.00 0.00 0.00 22 1014.2
20260905142517 70 23 5.0 9.0 0.00 0.00 0.00 22 1014.1
20260905141517 70 0 4.0 9.0 0.00 0.00 0.00 23 1014.2
20260905140517 69 23 5.0 8.0 0.00 0.00 0.00 23 1014.0
20260905135518 69 0 6.0 13.0 0.00 0.00 0.00 23 1013.9
20260905134537 69 23 5.0 8.0 0.00 0.00 0.00 23 1014.0
20260905133517 69 23 4.0 10.0 0.00 0.00 0.00 23 1014.1
20260905132517 69 0 3.0 9.0 0.00 0.00 0.00 23 1013.9
20260905131519 69 23 4.0 10.0 0.00 0.00 0.00 23 1013.9
20260905130519 69 23 5.0 10.0 0.00 0.00 0.00 23 1013.8
20260905125519 70 23 4.0 11.0 0.00 0.00 0.00 23 1013.8
20260905124519 70 0 4.0 9.0 0.00 0.00 0.00 23 1013.7
20260905123519 70 0 4.0 7.0 0.00 0.00 0.00 23 1013.5
20260905122519 70 0 4.0 9.0 0.00 0.00 0.00 22 1013.4
20260905121519 71 0 3.0 8.0 0.00 0.00 0.00 22 1013.5
20260905120520 71 23 4.0 8.0 0.00 0.00 0.00 22 1013.5
20260905115519 71 0 4.0 10.0 0.00 0.00 0.00 22 1013.3